27-08-2023, 00:00:00,    263,    0.0,   10.1,   0.00,   0.00, 1007.3,    0.4, -999.0
27-08-2023, 00:00:10,    263,    0.0,   10.1,   0.00,   0.00, 1007.3,    0.2, -999.0
27-08-2023, 00:00:20,    263,    0.0,   10.1,   0.00,   0.00, 1007.3,    0.1, -999.0
27-08-2023, 00:00:30,    264,    0.0,   10.2,   0.00,   0.00, 1007.3,    0.3, -999.0
27-08-2023, 00:00:40,    263,    0.0,   10.0,   0.00,   0.00, 1007.3,    0.2, -999.0
27-08-2023, 00:00:50,    263,    0.0,   10.0,   0.00,   0.00, 1007.3,    0.2, -999.0
27-08-2023, 00:01:00,    263,    0.0,   10.1,   0.00,   0.00, 1007.3,    0.1, -999.0
27-08-2023, 00:01:10,    263,    0.0,   10.1,   0.00,   0.00, 1007.3,    0.3, -999.0
27-08-2023, 00:01:20,    263,    0.0,   10.0,   0.00,   0.00, 1007.3,    0.3, -999.0
27-08-2023, 00:01:30,    262,    0.0,   10.1,   0.00,   0.00, 1007.3,    0.3, -999.0
27-08-2023, 00:01:40,    263,    0.0,   10.1,   0.00,   0.00, 1007.3,    0.2, -999.0
27-08-2023, 00:01:50,    263,    0.0,   10.1,   0.00,   0.00, 1007.3,    0.2, -999.0
27-08-2023, 00:02:00,    263,    0.0,   10.1,   0.00,   0.00, 1007.3,    0.3, -999.0
27-08-2023, 00:02:10,    263,    0.0,   10.1,   0.00,   0.00, 1007.3,    0.3, -999.0
27-08-2023, 00:02:20,    263,    0.0,   10.1,   0.00,   0.00, 1007.3,    0.2, -999.0
27-08-2023, 00:02:30,    263,    0.0,   10.2,   0.00,   0.00, 1007.3,    0.1, -999.0
27-08-2023, 00:02:40,    263,    0.0,   10.1,   0.00,   0.00, 1007.3,    0.1, -999.0
27-08-2023, 00:02:50,    263,    0.0,   10.1,   0.00,   0.00, 1007.3,    0.4, -999.0
27-08-2023, 00:03:00,    262,    0.0,   10.1,   0.00,   0.00, 1007.3,    0.2, -999.0
27-08-2023, 00:03:10,    263,    0.0,   10.1,   0.00,   0.00, 1007.3,    0.1, -999.0
27-08-2023, 00:03:20,    263,    0.0,   10.1,   0.00,   0.00, 1007.3,    0.3, -999.0
27-08-2023, 00:03:30,    263,    0.0,   10.1,   0.00,   0.00, 1007.3,    0.4, -999.0
27-08-2023, 00:03:40,    263,    0.0,   10.1,   0.00,   0.00, 1007.3,    0.4, -999.0
27-08-2023, 00:03:50,    262,    0.0,   10.1,   0.00,   0.00, 1007.3,    0.4, -999.0
27-08-2023, 00:04:00,    263,    0.0,   10.1,   0.00,   0.00, 1007.3,    0.1, -999.0
27-08-2023, 00:04:10,    263,    0.0,   10.2,   0.00,   0.00, 1007.3,    0.2, -999.0
27-08-2023, 00:04:20,    262,    0.0,   10.2,   0.00,   0.00, 1007.3,    0.1, -999.0
27-08-2023, 00:04:30,    263,    0.0,   10.2,   0.00,   0.00, 1007.3,    0.2, -999.0
27-08-2023, 00:04:40,    263,    0.0,   10.1,   0.00,   0.00, 1007.3,    0.3, -999.0
27-08-2023, 00:04:49,    263,    0.0,   10.1,   0.00,   0.00, 1007.3,    0.3, -999.0
27-08-2023, 00:05:00,    263,    0.0,   10.1,   0.00,   0.00, 1007.3,    0.1, -999.0
27-08-2023, 00:05:10,    262,    0.0,   10.1,   0.00,   0.00, 1007.3,    0.3, -999.0
27-08-2023, 00:05:19,    263,    0.0,   10.0,   0.00,   0.00, 1007.3,    0.0, -999.0
27-08-2023, 00:05:29,    262,    0.0,   10.0,   0.00,   0.00, 1007.2,    0.2, -999.0
27-08-2023, 00:05:40,    263,    0.0,   10.0,   0.00,   0.00, 1007.3,    0.0, -999.0
27-08-2023, 00:05:50,    263,    0.0,   10.1,   0.00,   0.00, 1007.3,    0.3, -999.0
27-08-2023, 00:05:59,    263,    0.0,   10.1,   0.00,   0.00, 1007.3,    0.3, -999.0
27-08-2023, 00:06:09,    263,    0.0,   10.1,   0.00,   0.00, 1007.3,    0.2, -999.0
27-08-2023, 00:06:20,    262,    0.0,   10.1,   0.00,   0.00, 1007.2,    0.2, -999.0
27-08-2023, 00:06:29,    262,    0.0,   10.1,   0.00,   0.00, 1007.2,    0.2, -999.0
27-08-2023, 00:06:39,    262,    0.0,   10.1,   0.00,   0.00, 1007.2,    0.1, -999.0
27-08-2023, 00:06:49,    262,    0.0,   10.1,   0.00,   0.00, 1007.3,    0.1, -999.0
27-08-2023, 00:06:59,    263,    0.0,   10.1,   0.00,   0.00, 1007.2,    0.2, -999.0
27-08-2023, 00:07:09,    262,    0.0,   10.1,   0.00,   0.00, 1007.2,    0.3, -999.0
27-08-2023, 00:07:19,    262,    0.0,   10.1,   0.00,   0.00, 1007.2,    0.2, -999.0
27-08-2023, 00:07:29,    263,    0.0,   10.1,   0.00,   0.00, 1007.2,    0.3, -999.0
27-08-2023, 00:07:39,    262,    0.0,   10.1,   0.00,   0.00, 1007.2,    0.2, -999.0
27-08-2023, 00:07:49,    262,    0.0,   10.0,   0.00,   0.00, 1007.2,    0.2, -999.0
27-08-2023, 00:07:59,    262,    0.0,   10.0,   0.00,   0.00, 1007.2,    0.2, -999.0
27-08-2023, 00:08:09,    262,    0.0,   10.1,   0.00,   0.00, 1007.2,    0.3, -999.0
27-08-2023, 00:08:19,    262,    0.0,   10.1,   0.00,   0.00, 1007.2,    0.1, -999.0
27-08-2023, 00:08:29,    262,    0.0,   10.1,   0.00,   0.00, 1007.2,    0.2, -999.0
27-08-2023, 00:08:39,    262,    0.0,   10.0,   0.00,   0.00, 1007.2,    0.2, -999.0
27-08-2023, 00:08:49,    262,    0.0,   10.1,   0.00,   0.00, 1007.2,    0.1, -999.0
27-08-2023, 00:08:59,    262,    0.0,   10.0,   0.00,   0.00, 1007.3,    0.1, -999.0
27-08-2023, 00:09:09,    262,    0.0,   10.1,   0.00,   0.00, 1007.2,    0.2, -999.0
27-08-2023, 00:09:19,    262,    0.0,   10.0,   0.00,   0.00, 1007.3,    0.1, -999.0
27-08-2023, 00:09:29,    262,    0.0,   10.0,   0.00,   0.00, 1007.2,    0.3, -999.0
27-08-2023, 00:09:41,    263,    0.0,   10.0,   0.00,   0.00, 1007.2,    0.2, -999.0
27-08-2023, 00:09:49,    263,    0.0,   10.0,   0.00,   0.00, 1007.2,    0.2, -999.0
27-08-2023, 00:09:59,    262,    0.0,   10.0,   0.00,   0.00, 1007.3,    0.1, -999.0
27-08-2023, 00:10:09,    263,    0.0,   10.0,   0.00,   0.00, 1007.2,    0.2, -999.0
27-08-2023, 00:10:19,    263,    0.0,   10.0,   0.00,   0.00, 1007.3,    0.2, -999.0
27-08-2023, 00:10:29,    263,    0.0,   10.0,   0.00,   0.00, 1007.2,    0.2, -999.0
27-08-2023, 00:10:39,    263,    0.0,   10.0,   0.00,   0.00, 1007.3,    0.1, -999.0
27-08-2023, 00:10:49,    263,    0.0,   10.0,   0.00,   0.00, 1007.2,    0.3, -999.0
27-08-2023, 00:10:59,    263,    0.0,   10.0,   0.00,   0.00, 1007.2,    0.2, -999.0
27-08-2023, 00:11:09,    263,    0.0,    9.9,   0.00,   0.00, 1007.2,    0.1, -999.0
27-08-2023, 00:11:19,    262,    0.0,   10.0,   0.00,   0.00, 1007.2,    0.1, -999.0
27-08-2023, 00:11:29,    263,    0.0,   10.0,   0.00,   0.00, 1007.2,    0.3, -999.0
27-08-2023, 00:11:39,    262,    0.0,    9.9,   0.00,   0.00, 1007.2,    0.1, -999.0
27-08-2023, 00:11:49,    261,    0.0,    9.9,   0.00,   0.00, 1007.2,    0.2, -999.0
27-08-2023, 00:11:58,    262,    0.0,    9.9,   0.00,   0.00, 1007.2,    0.2, -999.0
27-08-2023, 00:12:09,    261,    0.0,   10.0,   0.00,   0.00, 1007.2,    0.3, -999.0
27-08-2023, 00:12:19,    262,    0.0,   10.0,   0.00,   0.00, 1007.3,    0.2, -999.0
27-08-2023, 00:12:29,    261,    0.0,    9.9,   0.00,   0.00, 1007.2,    0.2, -999.0
27-08-2023, 00:12:38,    261,    0.0,    9.9,   0.00,   0.00, 1007.2,    0.1, -999.0
27-08-2023, 00:12:49,    261,    0.0,    9.9,   0.00,   0.00, 1007.2,    0.1, -999.0
27-08-2023, 00:12:59,    262,    0.0,    9.9,   0.00,   0.00, 1007.2,    0.2, -999.0
27-08-2023, 00:13:08,    262,    0.0,   10.0,   0.00,   0.00, 1007.2,    0.5, -999.0
27-08-2023, 00:13:18,    262,    0.0,   10.0,   0.00,   0.00, 1007.2,    0.4, -999.0
27-08-2023, 00:13:29,    262,    0.0,   10.0,   0.00,   0.00, 1007.2,    0.3, -999.0
27-08-2023, 00:13:38,    263,    0.0,   10.0,   0.00,   0.00, 1007.2,    0.1, -999.0
27-08-2023, 00:13:48,    262,    0.0,    9.9,   0.00,   0.00, 1007.3,    0.2, -999.0
27-08-2023, 00:13:58,    262,    0.0,   10.0,   0.00,   0.00, 1007.2,    0.4, -999.0
27-08-2023, 00:14:09,    262,    0.0,    9.9,   0.00,   0.00, 1007.2,    0.3, -999.0
27-08-2023, 00:14:18,    262,    0.0,   10.0,   0.00,   0.00, 1007.2,    0.1, -999.0
27-08-2023, 00:14:28,    262,    0.0,   10.0,   0.00,   0.00, 1007.2,    0.1, -999.0
27-08-2023, 00:14:39,    274,    0.0,    9.9,   0.00,   0.00, 1007.2,    0.3, -999.0
27-08-2023, 00:14:48,    274,    0.7,   10.0,   0.00,   0.00, 1007.4,    0.3, -999.0
27-08-2023, 00:14:58,    274,    0.8,   10.1,   0.00,   0.00, 1007.4,    0.5, -999.0
27-08-2023, 00:15:08,    273,    0.8,   10.1,   0.00,   0.00, 1007.4,    0.4, -999.0
27-08-2023, 00:15:18,    273,    0.4,   10.1,   0.00,   0.00, 1007.4,    0.2, -999.0
27-08-2023, 00:15:28,    273,    0.2,   10.0,   0.00,   0.00, 1007.3,    0.3, -999.0
27-08-2023, 00:15:38,    273,    0.7,   10.1,   0.00,   0.00, 1007.4,    0.3, -999.0
27-08-2023, 00:15:48,    273,    0.2,   10.0,   0.00,   0.00, 1007.3,    0.1, -999.0
27-08-2023, 00:15:58,    273,    0.0,    9.9,   0.00,   0.00, 1007.3,    0.3, -999.0
27-08-2023, 00:16:08,    273,    0.1,   10.0,   0.00,   0.00, 1007.3,    0.1, -999.0
27-08-2023, 00:16:18,    273,    0.0,   10.0,   0.00,   0.00, 1007.2,    0.2, -999.0
27-08-2023, 00:16:28,    274,    0.0,   10.0,   0.00,   0.00, 1007.3,    0.1, -999.0
27-08-2023, 00:16:38,    273,    0.0,    9.9,   0.00,   0.00, 1007.3,    0.2, -999.0
27-08-2023, 00:16:48,    274,    0.0,    9.9,   0.00,   0.00, 1007.2,    0.1, -999.0
27-08-2023, 00:16:58,    273,    0.0,    9.9,   0.00,   0.00, 1007.2,    0.3, -999.0
27-08-2023, 00:17:08,    272,    0.0,   10.0,   0.00,   0.00, 1007.2,    0.3, -999.0
27-08-2023, 00:17:18,    273,    0.0,   10.0,   0.00,   0.00, 1007.3,    0.2, -999.0
27-08-2023, 00:17:28,    272,    0.0,    9.9,   0.00,   0.00, 1007.2,    0.2, -999.0
27-08-2023, 00:17:38,    273,    0.0,   10.0,   0.00,   0.00, 1007.2,    0.3, -999.0
27-08-2023, 00:17:48,    273,    0.0,    9.9,   0.00,   0.00, 1007.2,    0.2, -999.0
27-08-2023, 00:17:58,    273,    0.0,    9.9,   0.00,   0.00, 1007.2,    0.2, -999.0
27-08-2023, 00:18:08,    273,    0.0,   10.1,   0.00,   0.00, 1007.2,    0.3, -999.0
27-08-2023, 00:18:18,    273,    0.0,   10.0,   0.00,   0.00, 1007.2,    0.3, -999.0
27-08-2023, 00:18:28,    272,    0.0,   10.0,   0.00,   0.00, 1007.2,    0.2, -999.0
27-08-2023, 00:18:38,    272,    0.0,   10.0,   0.00,   0.00, 1007.2,    0.1, -999.0
27-08-2023, 00:18:49,    274,    0.0,    9.9,   0.00,   0.00, 1007.3,    0.3, -999.0
27-08-2023, 00:18:58,    274,    0.0,   10.0,   0.00,   0.00, 1007.2,    0.3, -999.0
27-08-2023, 00:19:07,    274,    0.0,   10.0,   0.00,   0.00, 1007.2,    0.2, -999.0
27-08-2023, 00:19:18,    274,    0.0,    9.9,   0.00,   0.00, 1007.2,    0.1, -999.0
27-08-2023, 00:19:29,    274,    0.0,    9.9,   0.00,   0.00, 1007.2,    0.2, -999.0
27-08-2023, 00:19:38,    275,    0.0,    9.9,   0.00,   0.00, 1007.2,    0.0, -999.0
27-08-2023, 00:19:48,    274,    0.0,    9.9,   0.00,   0.00, 1007.2,    0.0, -999.0
27-08-2023, 00:19:58,    274,    0.0,   10.0,   0.00,   0.00, 1007.2,    0.0, -999.0
27-08-2023, 00:20:08,    274,    0.4,    9.9,   0.00,   0.00, 1007.3,    0.3, -999.0
27-08-2023, 00:20:17,    274,    0.8,   10.0,   0.00,   0.00, 1007.4,    0.3, -999.0
27-08-2023, 00:20:28,    274,    0.0,    9.9,   0.00,   0.00, 1007.2,    0.5, -999.0
27-08-2023, 00:20:38,    274,    0.0,    9.9,   0.00,   0.00, 1007.2,    0.3, -999.0
27-08-2023, 00:20:47,    274,    0.8,   10.0,   0.00,   0.00, 1007.4,    0.2, -999.0
27-08-2023, 00:20:57,    274,    0.0,    9.9,   0.00,   0.00, 1007.2,    0.3, -999.0
27-08-2023, 00:21:08,    274,    0.0,    9.9,   0.00,   0.00, 1007.2,    0.0, -999.0
27-08-2023, 00:21:18,    274,    0.0,   10.0,   0.00,   0.00, 1007.2,    0.0, -999.0
27-08-2023, 00:21:27,    273,    0.0,    9.9,   0.00,   0.00, 1007.2,    0.0, -999.0
27-08-2023, 00:21:37,    274,    0.0,    9.8,   0.00,   0.00, 1007.2,    0.1, -999.0
27-08-2023, 00:21:48,    274,    0.0,   10.0,   0.00,   0.00, 1007.2,    0.0, -999.0
27-08-2023, 00:21:57,    273,    0.0,    9.9,   0.00,   0.00, 1007.2,    0.2, -999.0
27-08-2023, 00:22:07,    274,    0.0,    9.9,   0.00,   0.00, 1007.2,    0.5, -999.0
27-08-2023, 00:22:17,    274,    0.0,   10.0,   0.00,   0.00, 1007.2,    0.0, -999.0
27-08-2023, 00:22:27,    274,    0.0,   10.0,   0.00,   0.00, 1007.2,    0.1, -999.0
27-08-2023, 00:22:37,    273,    0.0,    9.9,   0.00,   0.00, 1007.2,    0.3, -999.0
27-08-2023, 00:22:47,    273,    0.0,   10.0,   0.00,   0.00, 1007.2,    0.3, -999.0
27-08-2023, 00:22:57,    274,    0.0,   10.0,   0.00,   0.00, 1007.2,    0.0, -999.0
27-08-2023, 00:23:07,    270,    0.0,    9.9,   0.00,   0.00, 1007.2,    0.0, -999.0
27-08-2023, 00:23:17,    273,    0.0,    9.9,   0.00,   0.00, 1007.2,    0.2, -999.0
27-08-2023, 00:23:27,    274,    0.0,    9.9,   0.00,   0.00, 1007.2,    0.6, -999.0
27-08-2023, 00:23:37,    274,    0.0,    9.9,   0.00,   0.00, 1007.2,    0.2, -999.0
27-08-2023, 00:23:47,    274,    0.0,    9.9,   0.00,   0.00, 1007.2,    0.1, -999.0
27-08-2023, 00:23:57,    274,    0.0,    9.9,   0.00,   0.00, 1007.2,    0.1, -999.0
27-08-2023, 00:24:07,    274,    0.0,    9.9,   0.00,   0.00, 1007.2,    0.3, -999.0
27-08-2023, 00:24:17,    274,    0.0,    9.9,   0.00,   0.00, 1007.2,    0.2, -999.0
27-08-2023, 00:24:27,    269,    0.0,    9.8,   0.00,   0.00, 1007.2,    0.2, -999.0
27-08-2023, 00:24:37,    269,    0.0,    9.9,   0.00,   0.00, 1007.2,    0.0, -999.0
27-08-2023, 00:24:47,    269,    0.0,    9.9,   0.00,   0.00, 1007.2,    0.3, -999.0
27-08-2023, 00:24:57,    269,    0.0,    9.8,   0.00,   0.00, 1007.2,    0.5, -999.0
27-08-2023, 00:25:07,    268,    0.0,    9.9,   0.00,   0.00, 1007.1,    0.1, -999.0
27-08-2023, 00:25:17,    269,    0.0,    9.9,   0.00,   0.00, 1007.1,    0.0, -999.0
27-08-2023, 00:25:27,    269,    0.0,    9.9,   0.00,   0.00, 1007.1,    0.1, -999.0
27-08-2023, 00:25:37,    269,    0.0,    9.9,   0.00,   0.00, 1007.2,    0.5, -999.0
27-08-2023, 00:25:47,    269,    0.0,    9.8,   0.00,   0.00, 1007.2,    0.5, -999.0
27-08-2023, 00:25:57,    270,    0.0,    9.8,   0.00,   0.00, 1007.1,    0.2, -999.0
27-08-2023, 00:26:07,    269,    0.0,    9.9,   0.00,   0.00, 1007.2,    0.2, -999.0
27-08-2023, 00:26:17,    268,    0.0,    9.8,   0.00,   0.00, 1007.1,    0.1, -999.0
27-08-2023, 00:26:27,    269,    0.4,    9.8,   0.00,   0.00, 1007.2,    0.3, -999.0
27-08-2023, 00:26:37,    268,    0.3,    9.9,   0.00,   0.00, 1007.2,    0.5, -999.0
27-08-2023, 00:26:46,    269,    0.2,    9.9,   0.00,   0.00, 1007.2,    0.3, -999.0
27-08-2023, 00:26:57,    269,    0.3,    9.9,   0.00,   0.00, 1007.2,    0.3, -999.0
27-08-2023, 00:27:07,    269,    0.0,    9.8,   0.00,   0.00, 1007.1,    0.2, -999.0
27-08-2023, 00:27:17,    268,    0.0,    9.8,   0.00,   0.00, 1007.2,    0.2, -999.0
27-08-2023, 00:27:26,    268,    0.0,    9.8,   0.00,   0.00, 1007.1,    0.2, -999.0
27-08-2023, 00:27:37,    269,    0.0,    9.8,   0.00,   0.00, 1007.2,    0.2, -999.0
27-08-2023, 00:27:47,    268,    0.0,    9.8,   0.00,   0.00, 1007.1,    0.2, -999.0
27-08-2023, 00:27:56,    268,    0.0,    9.8,   0.00,   0.00, 1007.1,    0.3, -999.0
27-08-2023, 00:28:06,    268,    0.0,    9.8,   0.00,   0.00, 1007.1,    0.1, -999.0
27-08-2023, 00:28:17,    269,    0.0,    9.7,   0.00,   0.00, 1007.1,    0.2, -999.0
27-08-2023, 00:28:26,    268,    0.0,    9.8,   0.00,   0.00, 1007.1,    0.2, -999.0
27-08-2023, 00:28:36,    268,    0.0,    9.7,   0.00,   0.00, 1007.1,    0.2, -999.0
27-08-2023, 00:28:47,    268,    0.0,    9.8,   0.00,   0.00, 1007.1,    0.2, -999.0
27-08-2023, 00:28:57,    268,    0.0,    9.8,   0.00,   0.00, 1007.2,    0.2, -999.0
27-08-2023, 00:29:06,    268,    0.0,    9.7,   0.00,   0.00, 1007.2,    0.2, -999.0
27-08-2023, 00:29:16,    268,    0.3,    9.8,   0.00,   0.00, 1007.2,    0.4, -999.0
27-08-2023, 00:29:27,    268,    0.0,    9.8,   0.00,   0.00, 1007.2,    0.1, -999.0
27-08-2023, 00:29:36,    269,    0.0,    9.7,   0.00,   0.00, 1007.2,    0.3, -999.0
27-08-2023, 00:29:46,    269,    0.0,    9.8,   0.00,   0.00, 1007.2,    0.1, -999.0
27-08-2023, 00:29:56,    269,    0.0,    9.8,   0.00,   0.00, 1007.2,    0.1, -999.0
27-08-2023, 00:30:06,    268,    0.0,    9.8,   0.00,   0.00, 1007.1,    0.2, -999.0
27-08-2023, 00:30:16,    269,    0.0,    9.7,   0.00,   0.00, 1007.2,    0.2, -999.0
27-08-2023, 00:30:26,    268,    0.0,    9.8,   0.00,   0.00, 1007.2,    0.1, -999.0
27-08-2023, 00:30:36,    268,    0.0,    9.7,   0.00,   0.00, 1007.2,    0.2, -999.0
27-08-2023, 00:30:46,    268,    0.0,    9.8,   0.00,   0.00, 1007.2,    0.2, -999.0
27-08-2023, 00:30:56,    268,    0.0,    9.8,   0.00,   0.00, 1007.2,    0.3, -999.0
27-08-2023, 00:31:06,    269,    0.0,    9.8,   0.00,   0.00, 1007.1,    0.2, -999.0
27-08-2023, 00:31:16,    268,    0.0,    9.8,   0.00,   0.00, 1007.1,    0.2, -999.0
27-08-2023, 00:31:26,    268,    0.0,    9.7,   0.00,   0.00, 1007.1,    0.3, -999.0
27-08-2023, 00:31:36,    269,    0.0,    9.7,   0.00,   0.00, 1007.1,    0.2, -999.0
27-08-2023, 00:31:46,    268,    0.0,    9.7,   0.00,   0.00, 1007.1,    0.1, -999.0
27-08-2023, 00:31:56,    269,    0.0,    9.7,   0.00,   0.00, 1007.1,    0.2, -999.0
27-08-2023, 00:32:06,    268,    0.0,    9.8,   0.00,   0.00, 1007.1,    0.2, -999.0
27-08-2023, 00:32:16,    269,    0.0,    9.8,   0.00,   0.00, 1007.1,    0.2, -999.0
27-08-2023, 00:32:26,    268,    0.0,    9.7,   0.00,   0.00, 1007.1,    0.2, -999.0
27-08-2023, 00:32:36,    268,    0.0,    9.8,   0.00,   0.00, 1007.1,    0.2, -999.0
27-08-2023, 00:32:46,    268,    0.0,    9.8,   0.00,   0.00, 1007.1,    0.3, -999.0
27-08-2023, 00:32:56,    268,    0.0,    9.8,   0.00,   0.00, 1007.1,    0.2, -999.0
27-08-2023, 00:33:06,    268,    0.0,    9.8,   0.00,   0.00, 1007.2,    0.2, -999.0
27-08-2023, 00:33:16,    268,    0.0,    9.8,   0.00,   0.00, 1007.1,    0.1, -999.0
27-08-2023, 00:33:26,    268,    0.0,    9.8,   0.00,   0.00, 1007.1,    0.2, -999.0
27-08-2023, 00:33:36,    268,    0.0,    9.8,   0.00,   0.00, 1007.1,    0.2, -999.0
27-08-2023, 00:33:46,    268,    0.0,    9.8,   0.00,   0.00, 1007.1,    0.1, -999.0
27-08-2023, 00:33:56,    268,    0.0,    9.8,   0.00,   0.00, 1007.1,    0.4, -999.0
27-08-2023, 00:34:06,    267,    0.0,    9.8,   0.00,   0.00, 1007.1,    0.2, -999.0
27-08-2023, 00:34:16,    268,    0.0,    9.7,   0.00,   0.00, 1007.1,    0.1, -999.0
27-08-2023, 00:34:25,    268,    0.0,    9.7,   0.00,   0.00, 1007.1,    0.2, -999.0
27-08-2023, 00:34:36,    267,    0.0,    9.8,   0.00,   0.00, 1007.1,    0.2, -999.0
27-08-2023, 00:34:46,    267,    0.0,    9.8,   0.00,   0.00, 1007.1,    0.2, -999.0
27-08-2023, 00:34:56,    268,    0.0,    9.7,   0.00,   0.00, 1007.1,    0.2, -999.0
27-08-2023, 00:35:05,    268,    0.0,    9.8,   0.00,   0.00, 1007.1,    0.2, -999.0
27-08-2023, 00:35:16,    268,    0.0,    9.8,   0.00,   0.00, 1007.1,    0.2, -999.0
27-08-2023, 00:35:26,    267,    0.0,    9.8,   0.00,   0.00, 1007.1,    0.2, -999.0
27-08-2023, 00:35:35,    268,    0.0,    9.7,   0.00,   0.00, 1007.1,    0.2, -999.0
27-08-2023, 00:35:45,    268,    0.0,    9.7,   0.00,   0.00, 1007.1,    0.2, -999.0
27-08-2023, 00:35:56,    258,    0.0,    9.7,   0.00,   0.00, 1007.1,    0.2, -999.0
27-08-2023, 00:36:05,    258,    0.5,    9.8,   0.00,   0.00, 1007.2,    0.3, -999.0
27-08-2023, 00:36:15,    258,    0.0,    9.7,   0.00,   0.00, 1007.1,    0.3, -999.0
27-08-2023, 00:36:26,    258,    0.0,    9.8,   0.00,   0.00, 1007.1,    0.0, -999.0
27-08-2023, 00:36:35,    260,    0.4,    9.9,   0.00,   0.00, 1007.2,    0.3, -999.0
27-08-2023, 00:36:45,    259,    0.3,    9.9,   0.00,   0.00, 1007.2,    0.2, -999.0
27-08-2023, 00:36:55,    259,    0.0,    9.7,   0.00,   0.00, 1007.1,    0.3, -999.0
27-08-2023, 00:37:06,    260,    0.0,    9.8,   0.00,   0.00, 1007.1,    0.2, -999.0
27-08-2023, 00:37:15,    260,    0.0,    9.8,   0.00,   0.00, 1007.1,    0.2, -999.0
27-08-2023, 00:37:25,    259,    0.0,    9.8,   0.00,   0.00, 1007.1,    0.2, -999.0
27-08-2023, 00:37:35,    260,    0.0,    9.7,   0.00,   0.00, 1007.1,    0.2, -999.0
27-08-2023, 00:37:45,    260,    0.1,    9.8,   0.00,   0.00, 1007.1,    0.2, -999.0
27-08-2023, 00:37:55,    260,    0.0,    9.8,   0.00,   0.00, 1007.1,    0.3, -999.0
27-08-2023, 00:38:05,    259,    0.0,    9.8,   0.00,   0.00, 1007.1,    0.2, -999.0
27-08-2023, 00:38:15,    259,    0.0,    9.8,   0.00,   0.00, 1007.1,    0.2, -999.0
27-08-2023, 00:38:25,    259,    0.0,    9.8,   0.00,   0.00, 1007.1,    0.2, -999.0
27-08-2023, 00:38:35,    259,    0.0,    9.8,   0.00,   0.00, 1007.1,    0.2, -999.0
27-08-2023, 00:38:45,    259,    0.0,    9.8,   0.00,   0.00, 1007.1,    0.0, -999.0
27-08-2023, 00:38:55,    258,    0.0,    9.8,   0.00,   0.00, 1007.1,    0.2, -999.0
27-08-2023, 00:39:05,    259,    0.0,    9.7,   0.00,   0.00, 1007.1,    0.2, -999.0
27-08-2023, 00:39:15,    260,    0.0,    9.7,   0.00,   0.00, 1007.1,    0.2, -999.0
27-08-2023, 00:39:25,    259,    0.0,    9.8,   0.00,   0.00, 1007.1,    0.3, -999.0
27-08-2023, 00:39:35,    260,    0.0,    9.8,   0.00,   0.00, 1007.1,    0.3, -999.0
27-08-2023, 00:39:45,    261,    0.4,    9.8,   0.00,   0.00, 1007.2,    0.4, -999.0
27-08-2023, 00:39:55,    261,    0.0,    9.8,   0.00,   0.00, 1007.1,    0.1, -999.0
27-08-2023, 00:40:05,    260,    0.0,    9.8,   0.00,   0.00, 1007.1,    0.1, -999.0
27-08-2023, 00:40:15,    261,    0.0,    9.7,   0.00,   0.00, 1007.1,    0.2, -999.0
27-08-2023, 00:40:25,    260,    0.0,    9.7,   0.00,   0.00, 1007.1,    0.4, -999.0
27-08-2023, 00:40:35,    260,    0.0,    9.7,   0.00,   0.00, 1007.1,    0.0, -999.0
27-08-2023, 00:40:45,    260,    0.0,    9.8,   0.00,   0.00, 1007.1,    0.2, -999.0
27-08-2023, 00:40:55,    260,    0.2,    9.8,   0.00,   0.00, 1007.2,    0.3, -999.0
27-08-2023, 00:41:05,    260,    0.0,    9.8,   0.00,   0.00, 1007.1,    0.4, -999.0
27-08-2023, 00:41:15,    260,    0.5,    9.8,   0.00,   0.00, 1007.2,    0.2, -999.0
27-08-2023, 00:41:25,    260,    0.0,    9.7,   0.00,   0.00, 1007.1,    0.3, -999.0
27-08-2023, 00:41:34,    260,    0.0,    9.7,   0.00,   0.00, 1007.1,    0.3, -999.0
27-08-2023, 00:41:45,    260,    0.0,    9.7,   0.00,   0.00, 1007.1,    0.2, -999.0
27-08-2023, 00:41:55,    260,    0.0,    9.7,   0.00,   0.00, 1007.1,    0.3, -999.0
27-08-2023, 00:42:05,    260,    0.0,    9.7,   0.00,   0.00, 1007.1,    0.2, -999.0
27-08-2023, 00:42:15,    259,    0.0,    9.6,   0.00,   0.00, 1007.1,    0.2, -999.0
27-08-2023, 00:42:25,    260,    0.0,    9.7,   0.00,   0.00, 1007.1,    0.0, -999.0
27-08-2023, 00:42:35,    260,    0.0,    9.7,   0.00,   0.00, 1007.1,    0.2, -999.0
27-08-2023, 00:42:44,    260,    0.0,    9.7,   0.00,   0.00, 1007.1,    0.0, -999.0
27-08-2023, 00:42:55,    260,    0.0,    9.7,   0.00,   0.00, 1007.1,    0.2, -999.0
27-08-2023, 00:43:05,    259,    0.0,    9.6,   0.00,   0.00, 1007.1,    0.2, -999.0
27-08-2023, 00:43:14,    260,    0.0,    9.6,   0.00,   0.00, 1007.1,    0.2, -999.0
27-08-2023, 00:43:24,    259,    0.0,    9.6,   0.00,   0.00, 1007.1,    0.3, -999.0
27-08-2023, 00:43:35,    259,    0.0,    9.6,   0.00,   0.00, 1007.1,    0.2, -999.0
27-08-2023, 00:43:45,    261,    0.0,    9.6,   0.00,   0.00, 1007.1,    0.2, -999.0
27-08-2023, 00:43:54,    260,    0.0,    9.6,   0.00,   0.00, 1007.1,    0.2, -999.0
27-08-2023, 00:44:04,    259,    0.0,    9.7,   0.00,   0.00, 1007.1,    0.1, -999.0
27-08-2023, 00:44:15,    259,    0.0,    9.7,   0.00,   0.00, 1007.1,    0.2, -999.0
27-08-2023, 00:44:24,    260,    0.0,    9.6,   0.00,   0.00, 1007.1,    0.2, -999.0
27-08-2023, 00:44:34,    260,    0.0,    9.6,   0.00,   0.00, 1007.1,    0.3, -999.0
27-08-2023, 00:44:44,    260,    0.0,    9.6,   0.00,   0.00, 1007.1,    0.2, -999.0
27-08-2023, 00:44:54,    259,    0.0,    9.6,   0.00,   0.00, 1007.1,    0.1, -999.0
27-08-2023, 00:45:04,    259,    0.0,    9.6,   0.00,   0.00, 1007.1,    0.2, -999.0
27-08-2023, 00:45:14,    259,    0.0,    9.7,   0.00,   0.00, 1007.1,    0.3, -999.0
27-08-2023, 00:45:24,    259,    0.0,    9.6,   0.00,   0.00, 1007.1,    0.1, -999.0
27-08-2023, 00:45:34,    259,    0.0,    9.6,   0.00,   0.00, 1007.1,    0.1, -999.0
27-08-2023, 00:45:44,    259,    0.0,    9.6,   0.00,   0.00, 1007.1,    0.2, -999.0
27-08-2023, 00:45:54,    248,    0.0,    9.6,   0.00,   0.00, 1007.1,    0.2, -999.0
27-08-2023, 00:46:04,    248,    0.9,    9.6,   0.00,   0.00, 1007.2,    0.3, -999.0
27-08-2023, 00:46:14,    247,    0.2,    9.6,   0.00,   0.00, 1007.1,    0.2, -999.0
27-08-2023, 00:46:24,    248,    0.0,    9.6,   0.00,   0.00, 1007.1,    0.2, -999.0
27-08-2023, 00:46:34,    247,    0.0,    9.6,   0.00,   0.00, 1007.1,    0.2, -999.0
27-08-2023, 00:46:44,    248,    0.0,    9.5,   0.00,   0.00, 1007.1,    0.3, -999.0